Flag for Argentina Weather past 2 weeks in Mendoza, Mendoza, Argentina

Now
73 °F

Clear.


Feels Like: 77 °F
Forecast: 62 / 87 °F
Wind: No wind

Location: Mendoza Aerodrome

Current Time: Dec 25, 2014 at 2:08:59 AM

Latest Report: Dec 25, 2014 at 1:00 AM


Visibility: 10 mi

Pressure: 29.80 "Hg

Humidity: 31%

Dew point: 41 °F

Location of MendozaLocation

Historic Weather in Mendoza — Graph

°F

Mendoza temperature yesterday

Maximum temperature yesterday: 90 °F (at 6:00 PM)
Minimum temperature yesterday: 59 °F (at 6:00 AM)
Average temperature yesterday: 76 °F

Past Weeks' High & Low Weather Summary

 TemperatureHumidityPressure
High97 °F (Dec 19, 6:00 PM)94% (Dec 16, 3:00 AM)30.21 "Hg (Dec 16, 3:00 AM)
Low48 °F (Dec 22, 5:00 AM)10% (Dec 23, 5:00 PM)29.45 "Hg (Dec 19, 6:00 PM)
Average73 °F39%29.91 "Hg
* Reported Midnight between Dec 9 and Dec 10 — Midnight between Dec 24 and Dec 25, Mendoza, Weather by CustomWeather, © 2014

Note: Actual official high and low records may vary slightly from our data, if they occured in-between our weather recording intervals... More about our weather records

Advertising

Mendoza weather history for previous 24 hours

 ConditionsComfort  
Time TempWeatherWind HumidityBarometerVisibility
12:00 AM
Dec 25
75 °FClear.No wind29%29.80 "Hg10 mi
11:00 PM
Dec 24
79 °FClear.3 mph20%29.80 "Hg10 mi
10:00 PM79 °FClear.2 mph23%29.77 "Hg10 mi
9:00 PM82 °FClear.2 mph17%29.77 "Hg10 mi
8:00 PM86 °FClear.2 mph12%29.74 "Hg10 mi
7:00 PM88 °FSunny.5 mph12%29.74 "Hg10 mi
6:00 PM90 °FSunny.5 mph11%29.71 "Hg10 mi
5:00 PM88 °FSunny.3 mph12%29.74 "Hg10 mi
4:00 PM88 °FSunny.8 mph11%29.77 "Hg10 mi
3:00 PM86 °FSunny.6 mph17%29.80 "Hg10 mi
2:00 PM84 °FSunny.7 mph19%29.83 "Hg10 mi
1:00 PM81 °FSunny.7 mph20%29.83 "Hg10 mi
12:00 PM79 °FSunny.7 mph23%29.86 "Hg10 mi
11:00 AM75 °FSunny.6 mph25%29.86 "Hg10 mi
10:00 AM73 °FSunny.3 mph27%29.86 "Hg10 mi
9:00 AM70 °FSunny.7 mph27%29.89 "Hg10 mi
8:00 AM66 °FSunny.5 mph32%29.86 "Hg10 mi
7:00 AM61 °FSunny.No wind39%29.86 "Hg10 mi
6:00 AM59 °FSunny.No wind39%29.83 "Hg10 mi
5:00 AM63 °FClear.5 mph27%29.80 "Hg10 mi
4:00 AM64 °FClear.No wind28%29.80 "Hg10 mi
3:00 AM66 °FClear.No wind24%29.80 "Hg10 mi
2:00 AM68 °FClear.No wind26%29.83 "Hg10 mi
Weather by CustomWeather, © 2014

See weather overviewHow to use our weather pages